Weather History for Omaha, NE

Change the Weather History Date:

Monday, January 21, 2013

  Actual Average Record
Temperature  
Mean Temperature 10 °F 24 °F  
Max Temperature 16 °F 34 °F 58 °F (1899)
Min Temperature 4 °F 14 °F -16 °F (1883)
Degree Days  
Heating Degree Days 55 42  
Month to date heating degree days 812 882  
Since 1 July heating degree days 3089 3361  
Cooling Degree Days 0 0  
Month to date cooling degree days 0 0  
Year to date cooling degree days 0 0  
Moisture  
Dew Point -4 °F    
Average Humidity 57    
Maximum Humidity 73    
Minimum Humidity 40    
Precipitation  
Precipitation T in 0.03 in 0.40 in (1917)
Month to date precipitation 0.04 0.47  
Year to date precipitation 0.04 0.47  
Snow  
Snow T in 0.20 in - ()
Month to date snowfall T 4.0  
Since 1 July snowfall 7.4 13.0  
Snow Depth 0.00 in    
Sea Level Pressure  
Sea Level Pressure 30.47 in    
Wind  
Wind Speed 11 mph (NNW)    
Max Wind Speed 25 mph    
Max Gust Speed 30 mph    
Visibility 10 miles    
Events Snow    
T = Trace of Precipitation, MM = Missing Value Source: NWS Daily Summary

Daily Weather History Graph

Daily Weather History Graph

Search for Another Location

Airport:

Trip Planner

Search our weather history database for the weather conditions in past years. The results will help you decide how hot, cold, wet, or windy it might be!

Date:

Astronomy

Jan. 21, 2013 Rise Set
Actual Time 7:43 AM CST 5:26 PM CST
Civil Twilight 7:13 AM CST 5:56 PM CST
Nautical Twilight 6:40 AM CST 6:30 PM CST
Astronomical Twilight 6:07 AM CST 7:03 PM CST
Moon 1:07 PM CST (1/21) 3:13 AM CST (1/21)
Length of Visible Light 10h 43m
Length of Day
9h 42m
Waxing Gibbous, 75% of the Moon is Illuminated
Jan 21
Waxing Gibbous
Jan 26
Full
Feb 3
Last Quarter
Feb 10
New
Feb 17
First Quarter

Hourly Weather History & Observations

Time (CST) Temp. Windchill Dew Point Humidity Pressure Visibility Wind Dir Wind Speed Gust Speed Precip Events Conditions
12:52 AM 16.0 °F 2.3 °F 7.0 °F 68% 30.46 in 10.0 mi NNW 12.7 mph - N/A   Overcast
1:52 AM 14.0 °F 0.5 °F 5.0 °F 67% 30.47 in 9.0 mi NNW 11.5 mph - 0.00 in Snow Light Snow
2:52 AM 12.9 °F -4.4 °F 1.9 °F 62% 30.48 in 10.0 mi NNW 18.4 mph 26.5 mph 0.00 in   Overcast
3:52 AM 10.9 °F -5.9 °F -4.0 °F 51% 30.47 in 10.0 mi NNW 16.1 mph 26.5 mph N/A   Overcast
4:52 AM 8.1 °F -10.7 °F -2.9 °F 61% 30.48 in 10.0 mi North 18.4 mph - N/A   Overcast
5:52 AM 7.0 °F -11.6 °F -6.0 °F 55% 30.50 in 10.0 mi North 17.3 mph 25.3 mph N/A   Overcast
6:52 AM 5.0 °F -11.6 °F -6.0 °F 61% 30.52 in 10.0 mi North 12.7 mph - N/A   Mostly Cloudy
7:52 AM 3.9 °F -15.6 °F -7.1 °F 60% 30.52 in 10.0 mi NNW 17.3 mph - N/A   Mostly Cloudy
8:52 AM 5.0 °F -11.6 °F -7.1 °F 58% 30.53 in 10.0 mi North 12.7 mph - N/A   Mostly Cloudy
9:52 AM 6.1 °F -7.8 °F -6.0 °F 58% 30.54 in 10.0 mi NW 9.2 mph - N/A   Overcast
10:52 AM 7.0 °F -4.5 °F -7.1 °F 53% 30.54 in 10.0 mi North 6.9 mph - N/A   Overcast
11:52 AM 9.0 °F -4.2 °F -7.1 °F 48% 30.52 in 10.0 mi WNW 9.2 mph - N/A   Overcast
12:52 PM 10.0 °F -4.5 °F -7.1 °F 46% 30.48 in 10.0 mi NW 11.5 mph - N/A   Overcast
1:52 PM 10.9 °F -2.6 °F -6.0 °F 47% 30.47 in 10.0 mi NNW 10.4 mph - N/A   Mostly Cloudy
2:52 PM 14.0 °F 1.2 °F -7.1 °F 39% 30.46 in 10.0 mi NNW 10.4 mph - N/A   Scattered Clouds
3:52 PM 12.9 °F 0.7 °F -7.1 °F 41% 30.45 in 10.0 mi NNW 9.2 mph - N/A   Overcast
4:52 PM 12.9 °F 0.7 °F -6.0 °F 43% 30.44 in 10.0 mi NW 9.2 mph - N/A   Overcast
5:52 PM 12.9 °F -0.2 °F -5.1 °F 45% 30.43 in 10.0 mi NNW 10.4 mph - N/A   Overcast
6:52 PM 10.9 °F -1.8 °F -2.0 °F 56% 30.45 in 10.0 mi North 9.2 mph - N/A   Overcast
7:52 PM 10.9 °F -0.8 °F -2.0 °F 56% 30.45 in 10.0 mi North 8.1 mph - N/A   Overcast
8:52 PM 10.9 °F -0.8 °F -2.0 °F 56% 30.45 in 10.0 mi NNE 8.1 mph - N/A   Overcast
9:52 PM 10.4 °F -0.4 °F -2.2 °F 57% 30.38 in 10.0 mi NNE 6.9 mph - N/A   Overcast
10:52 PM 10.0 °F 0.4 °F -2.9 °F 56% 30.44 in 10.0 mi NNW 5.8 mph - N/A   Overcast
11:52 PM 10.0 °F - -2.9 °F 56% 30.44 in 10.0 mi Calm Calm - N/A   Overcast